AV279 Weather Reports


time (UTC)temp
C
wind
direction
speed
KPH
gust
KPH
rain 1hr
cm
rain 24hr
cm
rain mn
cm
humidity
%
barometer
mb
20260831095151 20 270 8.0 12.9 0.00 0.97 0.76 75 1009.7
20260831094119 20 270 9.7 16.1 0.00 0.97 0.76 75 1009.6
20260831093119 20 270 8.0 14.5 0.00 0.97 0.76 79 1009.5
20260831092119 19 293 6.4 9.7 0.00 0.97 0.76 83 1009.3
20260831091119 19 248 6.4 12.9 0.00 0.97 0.76 85 1009.3
20260831090119 18 225 6.4 9.7 0.00 0.97 0.76 86 1009.2
20260831085141 18 225 16.1 24.1 0.00 0.97 0.76 88 1009.1
20260831084129 17 270 4.8 9.7 0.00 0.97 0.76 91 1008.9
20260831083338 17 270 6.4 9.7 0.00 0.97 0.76 92 1008.7
20260831082719 16 225 8.0 11.3 0.00 0.97 0.76 92 1008.7
20260831081740 16 225 6.4 8.0 0.00 0.97 0.76 92 1008.7
20260831080719 16 248 8.0 11.3 0.00 0.97 0.76 92 1008.6
20260831075719 16 270 6.4 9.7 0.03 0.97 0.76 92 1008.5
20260831074719 16 225 6.4 11.3 0.03 0.97 0.76 92 1008.3
20260831073929 16 225 9.7 17.7 0.03 0.97 0.76 93 1008.3
20260831072839 15 225 9.7 16.1 0.05 0.97 0.76 93 1008.3
20260831071819 15 225 6.4 11.3 0.05 0.97 0.76 93 1008.3
20260831070819 15 225 8.0 14.5 0.05 0.97 0.76 93 1008.2
20260831065830 15 248 4.8 12.9 0.05 0.94 0.74 93 1008.2
20260831065036 15 225 8.0 14.5 0.05 0.94 0.74 93 1008.1
20260831063839 15 248 8.0 17.7 0.05 0.94 0.74 93 1008.0
20260831062819 15 248 8.0 11.3 0.05 0.91 0.71 92 1008.1
20260831061819 16 225 3.2 6.4 0.05 0.91 0.71 92 1007.9
20260831060830 16 225 9.7 17.7 0.05 0.91 0.71 92 1007.9
20260831055850 16 248 9.7 17.7 0.03 0.89 0.71 92 1007.8
20260831054819 16 225 11.3 17.7 0.00 0.89 0.69 92 1007.7
20260831053819 16 225 11.3 24.1 0.00 0.89 0.69 92 1007.6
20260831052819 16 248 6.4 11.3 0.00 0.89 0.69 92 1007.6
20260831051829 16 203 16.1 20.9 0.00 0.89 0.69 92 1007.0
20260831050818 16 225 11.3 22.5 0.00 0.89 0.69 92 1007.1
20260831045840 16 225 11.3 16.1 0.00 0.89 0.69 92 1007.2
20260831044840 16 203 14.5 20.9 0.00 0.89 0.69 92 1006.9
20260831043829 16 248 9.7 20.9 0.03 0.89 0.69 92 1006.9
20260831042819 16 203 14.5 20.9 0.03 0.89 0.69 93 1006.9
20260831041850 16 225 11.3 16.1 0.03 0.89 0.69 92 1006.8
20260831040829 16 203 17.7 27.4 0.03 0.89 0.69 92 1006.8
20260831035838 16 225 14.5 24.1 0.03 0.89 0.69 93 1006.9
20260831034829 16 225 11.3 17.7 0.05 0.89 0.69 93 1007.0
20260831033818 16 248 12.9 20.9 0.15 0.86 0.66 93 1007.1
20260831032818 16 225 12.9 22.5 0.15 0.86 0.66 93 1007.3
20260831031818 16 225 9.7 16.1 0.15 0.89 0.66 93 1007.2
20260831030818 16 248 9.7 17.7 0.15 0.89 0.66 94 1007.2
20260831025819 16 248 9.7 16.1 0.15 0.89 0.66 94 1007.5
20260831024829 16 248 4.8 8.0 0.15 0.89 0.64 94 1007.6
20260831023818 16 225 9.7 17.7 0.03 0.76 0.51 94 1007.4
20260831023015 16 225 11.3 16.1 0.00 0.74 0.51 94 1007.6
20260831022550 16 225 12.9 19.3 0.00 0.74 0.51 94 1007.5
20260831021551 16 203 8.0 19.3 0.00 0.74 0.51 94 1007.7
20260831020519 16 248 6.4 11.3 0.00 0.74 0.51 94 1007.6
20260831015518 16 203 6.4 11.3 0.05 0.74 0.51 94 1007.7
20260831014529 16 225 6.4 8.0 0.05 0.74 0.51 94 1007.9
20260831013519 16 225 8.0 12.9 0.05 0.74 0.51 94 1008.0
20260831012550 16 225 3.2 6.4 0.20 0.74 0.51 93 1008.2
20260831011519 16 203 4.8 9.7 0.46 0.74 0.51 94 1008.1
20260831010518 16 225 6.4 12.9 0.51 0.74 0.51 94 1008.5
20260831005518 16 203 3.2 6.4 0.46 0.71 0.46 93 1008.4
20260831004518 16 225 4.8 8.0 0.46 0.71 0.46 93 1008.3
20260831003519 16 225 6.4 11.3 0.46 0.71 0.46 93 1008.3
20260831002518 16 270 3.2 4.8 0.30 0.53 0.30 92 1008.6
20260831001538 16 225 8.0 12.9 0.05 0.28 0.05 91 1008.1
20260831000529 17 203 11.3 14.5 0.00 0.23 0.00 91 1008.4
20260830235518 17 225 8.0 12.9 0.00 0.23 0.23 91 1008.2
20260830234519 17 248 8.0 12.9 0.00 0.25 0.23 91 1008.2
20260830233714 17 225 11.3 17.7 0.00 0.25 0.23 91 1008.3
20260830233419 17 203 9.7 16.1 0.00 0.25 0.23 91 1008.2
20260830232613 17 203 12.9 17.7 0.00 0.25 0.23 91 1008.2
20260830232219 17 203 12.9 20.9 0.00 0.25 0.23 91 1008.3
20260830231218 17 203 11.3 17.7 0.00 0.25 0.23 91 1008.5
20260830230219 17 203 8.0 11.3 0.00 0.25 0.23 91 1008.5
20260830225412 17 180 6.4 11.3 0.00 0.25 0.23 91 1008.4
20260830224851 17 203 4.8 6.4 0.00 0.25 0.23 91 1008.5
20260830224012 17 248 6.4 8.0 0.00 0.25 0.23 91 1008.7
20260830223319 17 225 8.0 9.7 0.00 0.25 0.23 91 1008.7
20260830222319 17 203 4.8 4.8 0.00 0.25 0.23 91 1008.7
20260830221319 17 225 3.2 6.4 0.00 0.25 0.23 91 1008.7
20260830220351 17 225 6.4 12.9 0.00 0.25 0.23 91 1008.8
20260830215318 17 203 4.8 8.0 0.00 0.25 0.23 91 1008.7
20260830214340 17 225 6.4 12.9 0.00 0.25 0.23 91 1008.5
20260830213318 17 203 4.8 6.4 0.00 0.25 0.23 91 1008.6
20260830212318 17 203 6.4 11.3 0.00 0.25 0.23 92 1008.5
20260830211318 17 203 6.4 9.7 0.00 0.25 0.23 92 1008.5
20260830210349 17 225 3.2 6.4 0.00 0.25 0.23 91 1008.5
20260830205319 17 225 6.4 8.0 0.00 0.25 0.23 91 1008.5
20260830204533 17 180 6.4 9.7 0.00 0.25 0.23 91 1008.7
20260830203429 17 248 9.7 17.7 0.00 0.25 0.23 91 1008.8
20260830202419 17 225 8.0 14.5 0.00 0.25 0.23 91 1009.0
20260830201439 17 225 6.4 8.0 0.00 0.25 0.23 92 1009.1
20260830200429 17 225 4.8 8.0 0.03 0.25 0.23 92 1009.3
20260830195439 17 225 6.4 9.7 0.03 0.25 0.23 92 1009.3
20260830194439 17 225 6.4 9.7 0.05 0.25 0.23 92 1009.1
20260830193429 17 180 4.8 9.7 0.08 0.25 0.23 92 1009.1
20260830192418 17 180 4.8 8.0 0.08 0.25 0.23 92 1009.0
20260830191429 17 203 6.4 12.9 0.08 0.25 0.23 91 1008.9
20260830190418 17 203 6.4 12.9 0.05 0.23 0.23 91 1009.1
20260830185431 18 180 9.7 16.1 0.05 0.23 0.23 90 1009.2
20260830184420 18 248 9.7 14.5 0.05 0.23 0.20 89 1009.2
20260830183440 18 180 6.4 9.7 0.00 0.18 0.15 88 1009.3
20260830182449 18 180 3.2 6.4 0.00 0.18 0.15 88 1009.2
20260830181420 18 225 3.2 4.8 0.00 0.18 0.15 88 1009.2
20260830180418 18 203 3.2 4.8 0.00 0.18 0.15 87 1009.2
20260830175451 18 0.0 1.6 0.00 0.18 0.15 87 1009.4
20260830174420 18 225 9.7 14.5 0.00 0.18 0.15 88 1009.7
20260830173431 18 180 3.2 6.4 0.00 0.18 0.15 90 1009.6
20260830172418 18 203 3.2 4.8 0.00 0.18 0.15 90 1009.7
20260830171451 18 225 6.4 9.7 0.00 0.18 0.15 90 1009.8
20260830170420 18 203 3.2 4.8 0.00 0.30 0.15 90 1009.8
20260830165420 18 225 4.8 9.7 0.00 0.61 0.15 90 1009.9
20260830164420 18 203 3.2 4.8 0.08 0.79 0.15 90 1010.1
20260830163420 18 225 6.4 9.7 0.13 0.99 0.15 90 1010.1
20260830162440 18 203 4.8 8.0 0.13 1.04 0.15 89 1010.1
20260830161639 18 203 6.4 9.7 0.13 1.04 0.15 89 1010.2
20260830160431 18 225 4.8 8.0 0.13 1.04 0.15 88 1010.3
20260830155638 19 225 3.2 6.4 0.13 1.04 0.15 86 1010.3
20260830154631 20 248 3.2 6.4 0.05 0.99 0.10 83 1010.6
20260830153641 21 248 4.8 11.3 0.00 0.91 0.05 79 1010.3
20260830152701 21 248 3.2 6.4 0.00 0.91 0.05 74 1010.3
20260830151631 22 203 4.8 8.0 0.00 0.91 0.05 72 1010.1
20260830150652 22 225 4.8 6.4 0.00 0.91 0.05 72 1010.2
20260830145641 22 225 3.2 12.9 0.00 0.91 0.05 71 1010.3
20260830144620 22 225 6.4 14.5 0.00 0.91 0.05 70 1010.4
20260830143630 22 248 4.8 8.0 0.00 0.91 0.05 70 1010.5
20260830142630 22 270 3.2 6.4 0.00 0.94 0.05 71 1010.4
20260830141701 22 203 9.7 17.7 0.00 0.94 0.05 69 1010.6
20260830140620 22 248 9.7 17.7 0.00 0.94 0.05 69 1010.7
20260830135619 22 225 8.0 12.9 0.00 0.94 0.05 69 1010.8
20260830134630 22 225 11.3 17.7 0.00 0.97 0.05 69 1010.8
20260830133630 22 270 4.8 9.7 0.00 0.99 0.05 69 1010.9
20260830132619 22 248 14.5 24.1 0.00 0.99 0.05 67 1010.9
20260830131630 22 180 9.7 16.1 0.00 0.99 0.05 68 1011.1
20260830130651 22 248 6.4 11.3 0.00 0.99 0.05 66 1011.0
20260830125619 23 225 11.3 16.1 0.00 0.99 0.05 63 1011.1
20260830124619 23 203 12.9 20.9 0.00 0.99 0.05 63 1011.2
20260830123701 23 248 6.4 14.5 0.00 0.99 0.05 63 1011.1
20260830122619 23 180 4.8 8.0 0.00 0.99 0.05 64 1011.0
20260830121620 23 293 4.8 17.7 0.00 0.99 0.05 64 1011.2
20260830120620 23 270 3.2 4.8 0.00 0.99 0.05 67 1011.1
20260830115619 22 225 4.8 9.7 0.00 0.99 0.05 67 1011.3
20260830114619 22 270 4.8 6.4 0.00 1.02 0.05 67 1011.3
20260830113640 22 248 6.4 11.3 0.00 1.04 0.05 69 1011.3
20260830112700 22 248 6.4 11.3 0.00 1.04 0.05 70 1011.3
20260830111641 22 270 6.4 16.1 0.00 1.07 0.05 70 1011.2
20260830110700 22 248 4.8 6.4 0.00 1.07 0.05 72 1011.2
20260830105630 22 270 6.4 9.7 0.00 1.09 0.05 75 1011.3
20260830104619 22 270 4.8 9.7 0.00 1.09 0.05 75 1011.2
20260830103619 21 270 8.0 12.9 0.00 1.09 0.05 74 1011.3
20260830102619 21 248 4.8 11.3 0.00 1.09 0.05 75 1011.3
20260830101619 21 293 3.2 4.8 0.00 1.09 0.05 79 1011.2
20260830100719 21 225 8.0 11.3 0.00 1.09 0.05 81 1011.1